Weather reports worldwide

Advertisment
Helsingborg, Sweden (2611): temperature & dewpoint: 14.10.2019 04:00:00 - 20.10.2019 04:00:00 (CEST)Helsingborg, Sweden (2611): wind speed & gusts: 14.10.2019 04:00:00 - 20.10.2019 04:00:00 (CEST)Helsingborg, Sweden (2611): wind direction: 14.10.2019 04:00:00 - 20.10.2019 04:00:00 (CEST)Helsingborg, Sweden (2611): reduced air pressure: 14.10.2019 04:00:00 - 20.10.2019 04:00:00 (CEST)Helsingborg, Sweden (2611): visibility: 14.10.2019 04:00:00 - 20.10.2019 04:00:00 (CEST)Helsingborg, Sweden (2611): precipitation: 14.10.2019 04:00:00 - 20.10.2019 04:00:00 (CEST)
Date & Time tt [°C] td [°C] ff [km/h] ff [kn] fx [km/h] fx [kn] dd ppp [hPa] vv [km] rr [mm]
20.10.2019 04:00:00 10,9 10,5 5 3 11 6 SSW 1006,9 7 0,0
20.10.2019 03:00:00 11,9 11,4 7 4 18 10 S 1006,5 14 0,1
20.10.2019 02:00:00 12,3 11,8 11 6 19 11 S 1006,6 8 0,4
20.10.2019 01:00:00 12,3 11,8 12 6 25 13 S 1006,4 10 0,4
20.10.2019 00:00:00 12,2 11,7 14 8 24 13 S 1006,2 8 3,9
19.10.2019 23:00:00 11,2 10,6 6 3 13 7 SSE 1006,5 2,8 4,2
19.10.2019 22:00:00 10,9 10,1 6 3 13 7 SE 1006,6 7 1,3
19.10.2019 21:00:00 10,9 9,8 5 3 16 9 SSE 1006,8 6 1,2
19.10.2019 20:00:00 11,3 9,4 7 4 18 10 SE 1006,7 15 0,1
19.10.2019 19:00:00 12,0 9,4 8 4 21 11 SE 1006,8 34 0,0
19.10.2019 18:00:00 12,2 9,4 10 5 28 15 S 1006,5 41 0,0
19.10.2019 17:00:00 12,2 9,4 15 8 33 18 S 1006,5 37 0,0
19.10.2019 16:00:00 12,8 9,2 21 12 36 20 S 1006,4 33 0,0
19.10.2019 15:00:00 12,6 9,4 19 11 36 19 S 1006,4 38 0,0
19.10.2019 14:00:00 12,3 9,5 18 10 34 18 S 1006,8 32 0,0
19.10.2019 13:00:00 12,3 9,7 19 10 30 16 S 1006,5 29 0,0
19.10.2019 12:00:00 11,9 8,9 19 10 32 17 S 1006,6 40 0,0
19.10.2019 11:00:00 11,8 8,5 20 11 34 18 S 1006,6 35 0,0
19.10.2019 10:00:00 11,2 8,2 21 12 34 18 S 1006,3 38 0,0
19.10.2019 09:00:00 10,2 7,6 13 7 29 15 S 1006,1 40 0,0
19.10.2019 08:00:00 10,2 7,8 16 9 30 16 SSW 1006,0 35 0,0
19.10.2019 07:00:00 10,3 8,1 20 11 35 19 S 1005,6 37 0,0
19.10.2019 06:00:00 10,4 8,0 19 10 34 19 S 1005,2 39 0,0
19.10.2019 05:00:00 10,7 8,1 21 12 38 20 S 1004,7 35 0,0
19.10.2019 04:00:00 10,7 7,9 18 10 34 18 SSW 1004,5 35 0,0
19.10.2019 03:00:00 10,8 8,0 18 10 32 17 S 1004,5 37 0,0
19.10.2019 02:00:00 11,2 8,4 19 11 34 19 SSW 1004,2 33 0,0
19.10.2019 01:00:00 11,5 8,2 17 9 37 20 SSW 1003,9 34 0,0
19.10.2019 00:00:00 11,4 8,6 18 10 38 21 SSW 1003,5 49 0,0
18.10.2019 23:00:00 11,9 8,9 22 12 36 19 SSW 1002,9 50 0,0
18.10.2019 22:00:00 11,9 9,3 23 12 55 30 SSW 1002,7 50 0,0
18.10.2019 21:00:00 13,0 11,4 23 12 43 23 S 1001,5 23 3,8
18.10.2019 20:00:00 13,4 12,1 14 8 32 18 SE 1001,7 12 0,0
18.10.2019 19:00:00 13,3 12,0 16 9 29 15 SE 1002,6 13 0,0
18.10.2019 18:00:00 13,6 11,8 12 6 24 13 SE 1003,7 25 0,0
18.10.2019 17:00:00 14,1 12,0 10 5 23 12 SE 1003,9 38 0,0
18.10.2019 16:00:00 13,7 12,1 9 5 27 15 SSE 1004,6 29 0,0
18.10.2019 15:00:00 13,8 12,5 14 8 38 21 S 1005,4 16 0,0
18.10.2019 14:00:00 13,9 12,9 19 10 36 19 S 1006,0 18 0,0
18.10.2019 13:00:00 13,2 12,6 16 9 29 15 S 1006,6 - 0,0
18.10.2019 12:00:00 13,1 12,6 13 7 33 18 S 1007,0 10 0,0
18.10.2019 11:00:00 13,0 12,5 14 8 29 16 S 1007,2 9 0,4
18.10.2019 10:00:00 13,1 12,6 11 6 24 13 SSE 1007,4 8 0,1
18.10.2019 09:00:00 12,4 12,1 10 5 22 12 SE 1007,6 5 0,0
18.10.2019 08:00:00 11,6 11,3 9 5 19 11 SE 1007,9 5 0,1
18.10.2019 07:00:00 11,1 10,9 6 3 13 7 ESE 1008,5 3,0 1,3
18.10.2019 06:00:00 10,8 10,6 6 3 16 8 SE 1009,3 3,4 0,1
18.10.2019 05:00:00 10,6 10,3 4 2 12 7 E 1009,7 1,8 0,0
18.10.2019 04:00:00 10,3 10,1 6 3 10 6 E 1009,9 0,3 0,0
18.10.2019 03:00:00 9,2 8,9 4 2 5 3 E 1010,5 0,2 0,0
18.10.2019 02:00:00 10,3 10,0 2 1 5 3 SE 1010,8 0,2 0,0
18.10.2019 01:00:00 11,5 11,2 4 2 9 5 SSW 1010,9 6 0,0
18.10.2019 00:00:00 11,9 11,6 5 3 11 6 S 1010,9 5 0,0
17.10.2019 23:00:00 12,1 11,8 7 4 13 7 SW 1010,6 9 0,0
17.10.2019 22:00:00 12,5 12,2 9 5 16 8 SSW 1010,6 8 0,0
17.10.2019 21:00:00 12,0 11,7 4 2 8 5 SSW 1010,3 5 0,0
17.10.2019 20:00:00 12,0 11,7 0 0 8 4 N 1010,0 3,8 0,0
17.10.2019 19:00:00 12,9 12,6 5 3 16 9 W 1009,8 4,1 0,2
17.10.2019 18:00:00 13,5 13,2 7 4 14 7 SW 1009,3 2,7 0,3
17.10.2019 17:00:00 13,3 13,0 9 5 16 9 S 1008,9 2,3 0,1
17.10.2019 16:00:00 13,4 13,1 10 5 18 10 S 1008,4 2,2 0,3
17.10.2019 15:00:00 13,4 13,1 13 7 19 11 S 1008,1 3,3 0,0
17.10.2019 14:00:00 13,1 12,8 12 6 21 11 S 1008,0 8 0,0
17.10.2019 13:00:00 12,8 12,3 12 7 24 13 S 1008,0 5 0,0
17.10.2019 12:00:00 12,4 11,9 9 5 19 10 SSE 1008,2 5 0,5
17.10.2019 11:00:00 11,7 11,2 8 4 16 9 SSE 1008,1 3,5 1,1
17.10.2019 10:00:00 11,3 10,7 8 5 21 11 SE 1008,1 2,1 0,1
17.10.2019 09:00:00 11,1 10,6 6 3 14 7 SE 1008,1 2,7 0,0
17.10.2019 08:00:00 10,7 10,1 4 2 10 6 SSE 1007,9 3,5 0,0
17.10.2019 07:00:00 10,7 10,1 4 2 13 7 ESE 1007,8 4,3 0,0
17.10.2019 06:00:00 10,9 10,3 4 2 10 6 S 1007,8 4,2 0,0
17.10.2019 05:00:00 11,0 10,2 2 1 11 6 SSW 1008,0 5 0,0
17.10.2019 04:00:00 11,4 10,6 7 4 16 9 WSW 1007,9 9 0,0
17.10.2019 03:00:00 11,6 11,0 4 2 16 9 SW 1007,7 7 0,0
17.10.2019 02:00:00 12,2 11,7 9 5 16 9 WSW 1007,6 7 0,0
17.10.2019 01:00:00 12,3 11,8 7 4 14 8 WSW 1007,2 7 0,0
17.10.2019 00:00:00 12,1 11,6 7 4 21 11 W 1006,8 10 0,0
16.10.2019 23:00:00 12,1 11,6 9 5 22 12 W 1006,4 19 0,2
16.10.2019 22:00:00 12,1 11,6 10 6 24 13 W 1006,1 3,3 0,0
16.10.2019 21:00:00 12,1 11,6 14 8 29 15 WNW 1005,6 10 0,2
16.10.2019 20:00:00 12,0 11,5 8 4 19 10 WNW 1005,3 7 1,9
16.10.2019 19:00:00 11,8 11,3 11 6 17 9 WNW 1005,1 4,9 1,2
16.10.2019 18:00:00 11,7 11,2 6 4 15 8 NW 1005,0 3,6 0,1
16.10.2019 17:00:00 11,8 11,2 7 4 18 10 NNW 1004,8 2,6 0,4
16.10.2019 16:00:00 11,9 11,3 10 5 17 9 NNW 1004,9 9 0,0
16.10.2019 15:00:00 12,0 11,2 11 6 22 12 NNW 1004,4 16 0,0
16.10.2019 14:00:00 12,2 11,6 9 5 22 12 NNW 1004,4 7 0,0
16.10.2019 13:00:00 12,1 11,6 8 5 19 10 NNW 1004,5 - 0,0
16.10.2019 12:00:00 11,8 11,5 7 4 15 8 N 1004,6 - 0,0
16.10.2019 11:00:00 11,6 11,3 6 3 11 6 NNW 1004,9 - 0,0
16.10.2019 10:00:00 11,5 11,2 8 4 13 7 N 1004,7 - 0,0
16.10.2019 09:00:00 11,3 11,0 6 4 11 6 NNW 1005,1 - 0,0
16.10.2019 08:00:00 11,0 10,7 5 3 14 7 N 1004,6 - 0,0
16.10.2019 07:00:00 11,0 10,7 7 4 11 6 NNE 1004,6 - 0,0
16.10.2019 06:00:00 11,1 10,8 5 3 17 9 NNE 1005,0 - 0,0
16.10.2019 05:00:00 11,1 10,8 7 4 12 7 ENE 1005,2 - 0,0
16.10.2019 04:00:00 11,2 10,9 8 4 13 7 NE 1005,5 - 0,0
16.10.2019 03:00:00 11,3 11,0 3 2 6 3 N 1005,9 - 0,0
16.10.2019 02:00:00 11,2 10,9 0 0 5 3 N 1006,3 - 0,0
16.10.2019 01:00:00 11,3 11,0 0 0 8 5 N 1006,5 - 0,0
16.10.2019 00:00:00 11,4 10,9 4 2 12 6 ESE 1006,6 - 0,0
15.10.2019 23:00:00 11,4 10,9 6 3 14 7 E 1006,7 - 0,0
15.10.2019 22:00:00 11,5 10,9 5 3 16 9 ESE 1007,1 - 0,0
15.10.2019 21:00:00 11,6 10,8 8 4 22 12 SE 1007,3 - 0,0
15.10.2019 20:00:00 11,8 10,9 13 7 24 13 ESE 1007,1 - 0,0
15.10.2019 19:00:00 12,1 11,0 10 5 22 12 ESE 1007,1 - 0,0
15.10.2019 18:00:00 12,3 10,9 6 3 21 12 SE 1007,0 - 0,0
15.10.2019 17:00:00 13,1 11,2 11 6 24 13 E 1006,8 - 0,0
15.10.2019 16:00:00 13,9 11,4 10 5 28 15 E 1007,0 - 0,0
15.10.2019 15:00:00 14,5 11,5 14 7 32 17 ESE 1006,9 - 0,0
15.10.2019 14:00:00 15,2 11,4 15 8 29 16 SE 1007,6 - 0,0
15.10.2019 13:00:00 15,2 10,8 13 7 29 16 SE 1008,3 - 0,0
15.10.2019 12:00:00 15,1 10,1 15 8 30 16 ESE 1008,7 - 0,0
15.10.2019 11:00:00 13,6 8,9 14 8 27 15 ESE 1009,2 - 0,0
15.10.2019 10:00:00 12,1 9,3 12 6 30 16 E 1009,7 0,1 0,0
15.10.2019 09:00:00 10,4 9,2 14 7 31 17 E 1010,1 0,1 0,0
15.10.2019 08:00:00 9,6 8,7 14 8 26 14 E 1010,4 0,1 0,0
15.10.2019 07:00:00 9,3 8,5 5 3 20 11 E 1011,6 0,1 0,0
15.10.2019 06:00:00 8,6 7,7 9 5 19 10 ENE 1012,0 0,1 0,0
15.10.2019 05:00:00 8,9 8,0 9 5 23 12 E 1012,7 - 1,9
15.10.2019 04:00:00 8,8 7,7 14 7 25 14 ESE 1012,9 - 1,9
15.10.2019 03:00:00 8,9 7,5 11 6 21 12 E 1013,8 0,1 0,9
15.10.2019 02:00:00 9,0 7,1 6 3 14 7 E 1015,3 - 0,1
15.10.2019 01:00:00 9,2 6,8 4 2 9 5 ESE 1015,8 0,1 0,0
15.10.2019 00:00:00 9,3 6,7 4 2 10 6 E 1015,7 0,1 0,0
14.10.2019 23:00:00 9,3 7,1 5 3 9 5 E 1015,6 0,1 0,0
14.10.2019 22:00:00 9,3 7,4 3 2 6 4 E 1015,9 - 0,0
14.10.2019 21:00:00 9,6 7,4 3 1 10 5 N 1016,4 - 0,0
14.10.2019 20:00:00 9,5 7,8 4 2 9 5 N 1015,9 - 0,0
14.10.2019 19:00:00 9,0 6,6 3 2 19 10 N 1015,7 - 0,0
14.10.2019 18:00:00 11,2 6,7 7 4 20 11 NW 1015,5 0,1 0,0
14.10.2019 17:00:00 11,6 6,1 12 7 29 16 NW 1015,0 0,1 0,0
14.10.2019 16:00:00 11,8 6,1 15 8 37 20 NW 1014,6 0,1 0,0
14.10.2019 15:00:00 11,8 6,7 18 10 42 23 WNW 1014,1 - 0,0
14.10.2019 14:00:00 12,2 6,5 23 13 48 26 WNW 1013,7 - 0,0
14.10.2019 13:00:00 12,1 7,6 21 11 46 25 WNW 1012,6 - 0,0
14.10.2019 12:00:00 12,2 7,5 23 12 44 24 W 1011,7 36 0,0
14.10.2019 11:00:00 11,8 7,5 23 12 46 25 W 1010,8 30 0,0
14.10.2019 10:00:00 12,5 7,4 24 13 57 31 WSW 1009,0 20 0,0
14.10.2019 09:00:00 12,6 7,3 28 15 57 31 SW 1007,1 25 0,0
14.10.2019 08:00:00 13,1 8,0 29 15 51 28 SW 1005,7 29 0,0
14.10.2019 07:00:00 13,8 9,2 23 12 50 27 SSW 1004,4 26 0,0
14.10.2019 06:00:00 14,1 9,3 23 12 46 25 SSW 1004,1 26 0,0
14.10.2019 05:00:00 14,4 10,0 23 13 55 30 SW 1004,0 26 0,0
14.10.2019 04:00:00 14,7 11,5 18 10 37 20 SSW 1003,4 23 0,0

tt = temperature
td = dewpoint
ff = wind speed
fx = gusts
dd = wind direction
ppp = reduced air pressure
vv = visibility
rr = precipitation

Next stations